Weather History for Danville, VA

Change the Weather History Date:

Friday, December 7, 2012

  Actual Average Record
Temperature  
Mean Temperature 48 °F 42 °F  
Max Temperature 51 °F 52 °F 81 °F (1998)
Min Temperature 45 °F 32 °F 9 °F (1954)
Degree Days  
Heating Degree Days 17 23  
Month to date heating degree days 97 156  
Since 1 July heating degree days 924 865  
Cooling Degree Days 0 0  
Month to date cooling degree days 0 0  
Year to date cooling degree days 1594 1439  
Moisture  
Dew Point 40 °F    
Average Humidity 75    
Maximum Humidity 93    
Minimum Humidity 56    
Precipitation  
Precipitation 0.15 in 0.11 in 1.32 in (1976)
Month to date precipitation 0.16 0.82  
Year to date precipitation 26.53 41.96  
Snow  
Snow 0.00 in - - ()
Month to date snowfall 0.0  
Since 1 July snowfall 0.0  
Snow Depth 0.00 in    
Sea Level Pressure  
Sea Level Pressure 30.10 in    
Wind  
Wind Speed 0 mph (West)    
Max Wind Speed 5 mph    
Max Gust Speed -    
Visibility 8 miles    
Events Rain    
T = Trace of Precipitation, MM = Missing Value Source: NWS Daily Summary

Daily Weather History Graph

Daily Weather History Graph

Search for Another Location

Airport:

Trip Planner

Search our weather history database for the weather conditions in past years. The results will help you decide how hot, cold, wet, or windy it might be!

Date:

Astronomy

Dec. 07, 2012 Rise Set
Actual Time 7:16 AM EST 5:01 PM EST
Civil Twilight 6:47 AM EST 5:30 PM EST
Nautical Twilight 6:15 AM EST 6:02 PM EST
Astronomical Twilight 5:44 AM EST 6:33 PM EST
Moon 12:43 AM EST (12/7) 12:49 PM EST (12/7)
Length of Visible Light 10h 42m
Length of Day
9h 44m
Last Quarter, 39% of the Moon is Illuminated
Dec 7
Last Quarter
Dec 13
New
Dec 20
First Quarter
Dec 28
Full
Jan 4
Last Quarter

Hourly Weather History & Observations

Time (EST) Temp. Dew Point Humidity Pressure Visibility Wind Dir Wind Speed Gust Speed Precip Events Conditions
12:53 AM 45.0 °F 37.0 °F 74% 30.20 in 10.0 mi Calm Calm - N/A   Overcast
1:53 AM 45.0 °F 35.1 °F 68% 30.20 in 10.0 mi Calm Calm - N/A   Overcast
2:14 AM 44.6 °F 35.6 °F 71% 30.20 in 10.0 mi Calm Calm - N/A   Overcast
2:53 AM 46.0 °F 34.0 °F 63% 30.19 in 10.0 mi Calm Calm - N/A   Overcast
3:53 AM 45.0 °F 35.1 °F 68% 30.18 in 10.0 mi Calm Calm - N/A   Overcast
4:26 AM 44.6 °F 33.8 °F 66% 30.18 in 10.0 mi Calm Calm - N/A   Overcast
4:40 AM 46.4 °F 33.8 °F 62% 30.17 in 10.0 mi Calm Calm - N/A   Overcast
4:53 AM 46.0 °F 34.0 °F 63% 30.17 in 10.0 mi Calm Calm - N/A   Overcast
5:09 AM 46.4 °F 33.8 °F 62% 30.17 in 10.0 mi Calm Calm - N/A   Overcast
5:32 AM 46.4 °F 33.8 °F 62% 30.16 in 10.0 mi Calm Calm - N/A   Overcast
5:53 AM 46.0 °F 33.1 °F 61% 30.15 in 10.0 mi Calm Calm - N/A   Overcast
6:53 AM 46.0 °F 34.0 °F 63% 30.16 in 10.0 mi Calm Calm - N/A   Overcast
7:53 AM 46.0 °F 34.0 °F 63% 30.16 in 10.0 mi Calm Calm - N/A   Overcast
8:53 AM 46.9 °F 35.1 °F 63% 30.17 in 10.0 mi Calm Calm - N/A   Overcast
9:53 AM 48.0 °F 35.1 °F 61% 30.17 in 10.0 mi Calm Calm - N/A   Overcast
10:53 AM 48.9 °F 35.1 °F 59% 30.15 in 10.0 mi Calm Calm - N/A   Overcast
11:29 AM 50.0 °F 35.6 °F 58% 30.15 in 10.0 mi Calm Calm - N/A   Overcast
11:53 AM 50.0 °F 35.1 °F 57% 30.12 in 10.0 mi Calm Calm - N/A   Overcast
12:53 PM 50.0 °F 37.9 °F 63% 30.08 in 9.0 mi Calm Calm - 0.00 in Rain Light Rain
1:53 PM 51.1 °F 39.9 °F 66% 30.06 in 10.0 mi Calm Calm - 0.00 in   Overcast
2:53 PM 48.9 °F 44.1 °F 83% 30.04 in 10.0 mi Calm Calm - 0.01 in Rain Light Rain
3:34 PM 48.2 °F 44.6 °F 87% 30.05 in 2.5 mi Calm Calm - 0.04 in Rain Light Rain
3:37 PM 48.2 °F 44.6 °F 87% 30.05 in 3.0 mi Calm Calm - 0.05 in Rain Light Rain
3:46 PM 48.2 °F 44.6 °F 87% 30.05 in 6.0 mi Calm Calm - 0.05 in Rain Light Rain
3:53 PM 48.0 °F 44.1 °F 86% 30.04 in 9.0 mi Calm Calm - 0.05 in   Overcast
4:26 PM 48.2 °F 44.6 °F 87% 30.05 in 9.0 mi Calm Calm - 0.01 in   Overcast
4:53 PM 48.0 °F 45.0 °F 89% 30.04 in 7.0 mi Calm Calm - 0.03 in   Overcast
5:09 PM 48.2 °F 44.6 °F 87% 30.05 in 2.0 mi Calm Calm - 0.03 in Rain Light Rain
5:15 PM 46.4 °F 44.6 °F 93% 30.05 in 3.0 mi Calm Calm - 0.04 in Rain Light Rain
5:36 PM 46.4 °F 44.6 °F 93% 30.05 in 9.0 mi Calm Calm - 0.05 in   Overcast
5:51 PM 46.4 °F 44.6 °F 93% 30.05 in 6.0 mi Calm Calm - 0.05 in   Overcast
5:53 PM 46.9 °F 45.0 °F 93% 30.04 in 5.0 mi Calm Calm - 0.05 in   Overcast
6:31 PM 46.4 °F 44.6 °F 93% 30.05 in 6.0 mi Calm Calm - 0.00 in   Overcast
6:53 PM 46.9 °F 45.0 °F 93% 30.03 in 6.0 mi Calm Calm - 0.01 in Rain Light Rain
9:53 PM 48.0 °F 45.0 °F 89% 30.02 in 2.5 mi West 3.5 mph - N/A   Overcast
10:53 PM 46.9 °F 45.0 °F 93% 30.01 in 2.0 mi Calm Calm - 0.01 in   Overcast
11:30 PM 48.2 °F 46.4 °F 93% 30.02 in 1.8 mi Calm Calm - N/A   Overcast
11:53 PM 48.0 °F 46.0 °F 93% 30.00 in 1.5 mi Calm Calm - N/A   Overcast